Location: Claremont
(33.9858°S, 18.4575°E)
Time: 03:03:48
(UTC+00:00)

MetOp-A - Pass Details

Date: 03 March 2021
Orbit: 819 x 821 km, 98.5° (Epoch: 10 April)

Event Time Altitude Azimuth Distance (km) Brightness Sun altitude
Rises 19:02:42 0° 164° (SSE) 3,384 7.4 -21.3°
Reaches altitude 10° 19:05:06 10° 160° (SSE) 2,444 6.6 -21.7°
Maximum altitude 19:10:28 63° 79° (E) 924 4.1 -22.8°
Enters shadow 19:12:05 43° 19° (NNE) 1,145 4.5 -23.1°
